SL-16 DEB

基本信息
目录编号:
23406
目录名称:
SL-16 DEB
国际标识:
1994-077C
轨道中心:
EARTH
物体状态:
在轨
发射日期:
1994-11-24 UTC
轨道信息
数据来源: 国际轨道数据
星历时间: 2026-07-13T22:02:35+0800
半长轴: 7365.293km
偏心率: 0.0202311
轨道倾角: 71.032°
近地点辐角: 240.848°
升交点赤经: 359.595°
平近点角: 187.319°
近地点: 838.148km
远地点: 1136.164km
周期: 104.844分钟
每日圈数: 13.734655
详细信息
发射场:
TTMTR
轨道高度:
LEO
数据来源:
AOE Integration Group
参考系:
TEME
时间系统:
UTC
历元类型:
SGP4
2D轨道图
3D轨道图
轨道高度分析图
轨道倾角分析图
轨道综合分析图
查看轨道综合分析图